This is the latest recevied weather packets stored in our database for station/object AB1AU. If no packets are shown the sender has not sent any weather packets the latest 10 day(s).
| Time | Temp. | Humidity | Pressure | Rain* | Wind** | Luminosity | Snow |
|---|---|---|---|---|---|---|---|
| 1777723438 | 5° C | 81% | 1015.7 hPa | 0 mm | - | 49 W/m² | - |
| 1777723136 | 4.44° C | 82% | 1015.8 hPa | 0 mm | - | 55 W/m² | - |
| 1777722833 | 4.44° C | 82% | 1015.7 hPa | 0 mm | - | 48 W/m² | - |
| 1777722529 | 4.44° C | 83% | 1015.8 hPa | 0 mm | - | 61 W/m² | - |
| 1777722226 | 3.89° C | 84% | 1015.5 hPa | 0 mm | - | 77 W/m² | - |
| 1777721923 | 3.89° C | 84% | 1015.5 hPa | 0 mm | - | 55 W/m² | - |
| 1777721621 | 3.89° C | 84% | 1015.6 hPa | 0 mm | - | 29 W/m² | - |
| 1777721319 | 3.89° C | 84% | 1015.5 hPa | 0 mm | - | 21 W/m² | - |
| 1777721016 | 3.33° C | 84% | 1015.6 hPa | 0 mm | - | 30 W/m² | - |
| 1777720713 | 3.33° C | 85% | 1015.3 hPa | 0 mm | - | 28 W/m² | - |
| 1777720410 | 3.33° C | 85% | 1015.3 hPa | 0 mm | - | 30 W/m² | - |
| 1777720108 | 3.33° C | 86% | 1015.3 hPa | 0 mm | - | 28 W/m² | - |
| 1777719806 | 3.33° C | 86% | 1015.2 hPa | 0 mm | - | 31 W/m² | - |
| 1777719503 | 2.78° C | 86% | 1015.1 hPa | 0 mm | - | 25 W/m² | - |
| 1777719200 | 2.78° C | 86% | 1015 hPa | 0 mm | - | 24 W/m² | - |
| 1777718898 | 2.78° C | 87% | 1014.7 hPa | 0 mm | - | 27 W/m² | - |
| 1777718595 | 2.78° C | 87% | 1015 hPa | 0 mm | - | 20 W/m² | - |
| 1777718292 | 2.22° C | 87% | 1014.9 hPa | 0 mm | - | 14 W/m² | - |
| 1777717989 | 2.22° C | 87% | 1014.8 hPa | 0 mm | - | 16 W/m² | - |
| 1777717687 | 2.22° C | 87% | 1014.7 hPa | 0 mm | - | 15 W/m² | - |
| 1777717382 | 2.22° C | 88% | 1014.6 hPa | 0 mm | - | 10 W/m² | - |
| 1777717081 | 2.22° C | 88% | 1014.6 hPa | 0 mm | - | 8 W/m² | - |
| 1777716778 | 1.67° C | 88% | 1014.5 hPa | 0 mm | - | 9 W/m² | - |
| 1777716476 | 1.67° C | 88% | 1014.2 hPa | 0 mm | - | 8 W/m² | - |
| 1777716175 | 1.67° C | 88% | 1014 hPa | 0 mm | - | 7 W/m² | - |
* Rain latest hour (hover to see other rain measurements)
** Current wind speed in m/s (hover to see current wind gust speed)